Other Public Products
Issued by NWS Charleston, SC

Current Version | Previous Version | Graphics & Text | Print | Product List | Glossary On
Versions: 1 2 3 4 5 6 7 8 9 10 11 12 13 14 15 16 17 18 19 20 21 22 23 24 25 26 27 28 29 30 31 32 33 34 35 36 37 38 39 40 41 42 43 44 45 46 47 48 49 50
000 FPUS82 KCHS 191027 OPUCHS TEST...KCHS/KSAV Gateway Observations...TEST National Weather Service Charleston SC 500 AM EST MON FEB 19 2018 NOTE: "fair" indicates few or no clouds below 12,000 feet with no significant weather and/or obstructions to visibility. SCZ050-WAZ558-NCZ071-TXZ119-213-PAZ071-DCZ001-FLZ074-172-MI076- NYZ176-178-MAZ016-IL014-TNZ027-NJZ106-GAZ044-MD014-191100- ...Gateway Observations for Charleston International... CITY SKY/WX TMP DP RH WIND PRES REMARKS Chas Airport CLOUDY 58 55 90 NE8 30.34R Seattle CLOUDY 31 16 54 N13 30.02R WCI 21 Charlotte CLOUDY 52 51 97 E6 30.39R FOG Dallas DFW CLOUDY 69 63 81 S24G30 29.84S Dallas Love CLOUDY 67 63 87 S16 29.86S Philladelphia MOCLDY 37 32 82 S6 30.53R WCI 32 Wash National CLOUDY 40 35 83 S6 30.50S WCI 36 Baltimore CLOUDY 34 34 100 CALM 30.48S Miami FAIR 74 64 71 E14 30.21S Detroit CLOUDY 34 29 82 SE5 30.03R WCI 30 Newark MOCLDY 36 30 79 S5 30.52S WCI 32 Laguardia MOCLDY 36 30 79 SE6 30.51F WCI 31 J F K CLOUDY 35 33 92 SE6 30.53F WCI 30 Boston Logan FAIR 29 23 78 SW5 30.54R WCI 24 Ft. Lauderdale FAIR 74 66 76 E14 30.21R Chicago O`Hare CLOUDY 39 36 89 S7 29.85S WCI 34 Chicago Midway DRIZZLE 39 38 96 S7 29.86F FOG WCI 34 Houston Bush MOCLDY 71 65 81 S13 29.98S Houston Hobby CLOUDY 70 67 90 S15G21 29.97F Nashville CLOUDY 58 55 90 S8 30.17S Atlanta DRZL/FOG 60 60 100 E6 30.29R VSB 1/2 $$ GAZ044-118-TXZ119-213-NCZ071-DCZ001-MDZ014-506-PAZ021-071-NJZ106- NYZ176-178-MAZ106-OHZ011-021-055-MIZ076-KYZ091-ILZ014-INZ047- MNZ060-ONZ431-191100- ...Gateway Observations for Savannah International... CITY SKY/WX TMP DP RH WIND PRES REMARKS Savannah Arpt CLOUDY 60 59 96 NE8 30.32R Atlanta DRZL/FOG 60 60 100 E6 30.29R VSB 1/2 Charlotte CLOUDY 52 51 97 E6 30.39R FOG Dallas DFW CLOUDY 69 63 81 S24G30 29.84S Houston Bush MOCLDY 71 65 81 S13 29.98S Wash National CLOUDY 40 35 83 S6 30.50S WCI 36 Wash Dulles CLOUDY 39 34 82 S6 30.47R WCI 35 Baltimore CLOUDY 34 34 100 CALM 30.48S Philadelphia MOCLDY 37 32 82 S6 30.53R WCI 32 Newark MOCLDY 36 30 79 S5 30.52S WCI 32 Laguardia MOCLDY 36 30 79 SE6 30.51F WCI 31 J F K CLOUDY 35 33 92 SE6 30.53F WCI 30 Boston FAIR 29 23 78 SW5 30.54R WCI 24 Pittsburg CLOUDY 35 29 78 SE5 30.16R WCI 31 Akron CLOUDY 39 28 64 S12 30.09F WCI 32 Cleveland FAIR 43 30 60 S13 30.08S Cincinnati CLOUDY 53 46 77 S16G26 30.06S Columbus CLOUDY 44 37 77 S16 30.09R Detroit CLOUDY 34 29 82 SE5 30.03R WCI 30 Chicago O`Hare CLOUDY 39 36 89 S7 29.85S WCI 34 Minneapolis CLOUDY 25 21 85 N17G24 29.81R WCI 12 Indianapolis LGT RAIN 48 44 86 S14 29.97S Toronto Canada MOCLDY 30 27 86 SE5 30.10F WCI 25 $$

USA.gov is the U.S. government's official web portal to all federal, state and local government web resources and services.